Location: Berua Church
(35.0423°N, 88.5987°W)
Time: 18:07:44
(UTC+00:00)

Daily predictions for brighter satellites

Satellite Brightness Start Highest point End
(mag) Time Altitude Azimuth Time Altitude Azimuth Time Altitude Azimuth
Cosmos 1110 Rocket 4.4 12:00:08 10° S 12:05:17 68° ESE 12:10:25 10° NNE
Cosmos 676 Rocket 4.4 12:01:28 10° NNW 12:06:24 42° WSW 12:11:21 10° S
Cosmos 1869 Rocket 4.2 12:05:06 10° SW 12:08:56 31° WNW 12:12:49 10° NNW
AQUARIUS 4.4 12:10:30 10° NNE 12:15:00 79° E 12:19:29 10° S
Meteor 1-18 Rocket 4.4 12:11:56 10° NNW 12:17:17 50° W 12:22:39 10° SSW
FALCON 9 DEB 3.9 12:15:34 10° NNW 12:17:39 26° NE 12:19:44 10° ESE
Okean 3 3.5 12:15:07 10° N 12:19:19 84° E 12:23:30 10° S
Cosmos 2263 Rocket 3.1 12:17:12 10° WSW 12:21:44 25° WNW 12:26:18 10° N
PSLV R/B 4.3 12:20:14 10° NW 12:22:05 19° N 12:23:57 10° NE
Cosmos 1346 Rocket 3.5 12:20:20 10° SW 12:23:48 31° WNW 12:27:16 10° NNW
FALCON 9 DEB 3.6 12:21:50 10° NNW 12:24:02 32° NE 12:26:13 10° ESE
CZ-3 Stage 3 3.8 12:07:46 10° WSW 12:26:18 60° S 12:30:10 10° E
IRS-1C Rocket 4.1 12:22:11 10° N 12:27:26 74° WNW 12:32:38 10° SSW
ATLAS 3B R/B 2.8 23:00:50 10° NNW 23:07:38 89° ENE 23:14:37 10° SSE
Cosmos 2237 Rocket 2.4 23:03:37 10° S 23:09:11 58° ESE 23:14:45 10° NNE
AQUARIUS 4.4 23:06:04 10° SE 23:10:21 46° ENE 23:14:40 10° N
Atlas Centaur 2 3.7 23:04:17 10° W 23:11:28 55° S 23:19:40 10° ESE
Cosmos 1340 3.9 23:09:21 10° NNW 23:12:59 46° W 23:16:36 10° SSW
YAOGAN 6 4.3 23:11:51 10° E 23:13:31 13° ENE 23:15:12 10° NE
Cosmos 1500 3.6 23:10:20 10° N 23:13:53 39° E 23:17:24 10° SSE
STARLINK-29 3.6 23:13:17 10° SSW 23:16:40 47° SE 23:20:04 10° ENE
Meteor 1-27 Rocket 3.8 23:12:25 10° S 23:18:02 68° E 23:23:48 10° NNE
H-2A R/B 2.7 23:15:38 10° SSE 23:19:16 56° ENE 23:22:53 10° N
Meteor 1-11 Rocket 3.9 23:13:44 10° N 23:19:37 57° E 23:25:25 10° SSE
CORIOLIS 4.2 23:18:24 10° SSE 23:23:45 62° ENE 23:29:07 10° N
Cosmos 2219 Rocket 3.6 23:19:32 10° SW 23:24:39 36° WNW 23:29:49 10° N
Cosmos 1536 3.4 23:22:37 10° NNE 23:26:19 35° E 23:29:59 10° SSE
COSMO-SKYMED 1 3.3 23:24:05 10° NNE 23:28:02 34° E 23:31:59 10° SSE
YAOGAN 1 4.0 23:28:20 10° ESE 23:30:59 16° ENE 23:33:38 10° NNE
CZ-4 R/B 2.6 23:29:09 10° ESE 23:31:56 19° ENE 23:34:42 10° NNE
OAO 2 Rocket 3.3 23:27:42 10° WSW 23:32:42 81° S 23:37:08 14° E
Lacrosse 5 rocket 3.3 23:31:21 10° W 23:34:50 23° NW 23:38:11 10° NNE
Cosmos 2251 Rocket 4.1 23:31:52 10° SSW 23:37:07 60° WNW 23:42:21 10° N
SL-8 R/B 4.0 23:32:53 10° WNW 23:37:42 71° SW 23:42:29 10° SE
Feng Yun 1-1 Rocket 4.3 23:32:23 10° SSE 23:37:47 81° WSW 23:43:11 10° NNW
Cosmos 1980 4.0 23:34:11 10° SSW 23:39:47 70° WNW 23:45:26 10° NNE
ISS -2.3 23:39:31 10° NNW 23:42:07 20° NNE 23:42:52 19° NE
Okean 1-7 3.6 23:38:43 10° SSE 23:42:38 36° E 23:46:37 10° NNE
Okean 1 4.5 23:40:42 10° SE 23:43:50 22° E 23:45:06 19° ENE
SL-4 R/B 4.5 23:44:57 10° NNW 23:45:05 10° NNW 23:45:13 10° NNW
STARLINK-60 4.0 23:42:22 10° WSW 23:45:35 43° NW 23:48:02 16° NNE
Nadezhda 4 Rocket 4.3 23:40:32 10° SSW 23:46:50 73° W 23:53:10 10° N
CSL-04 Rocket 4.4 23:43:42 10° SE 23:48:08 28° ENE 23:52:36 10° N
Cosmos 1733 Rocket 3.8 23:46:05 10° NNW 23:50:23 55° W 23:54:41 10° S
SKYMED 3 4.5 23:47:55 10° NNE 23:52:15 68° E 23:56:33 10° S
Cosmos 1263 4.2 23:49:10 10° S 23:52:28 82° W 23:55:28 10° N
Cosmos 614 Rocket 4.3 23:49:06 10° S 23:53:54 43° ESE 23:57:25 17° NE
